This is the latest recevied weather packets stored in our database for station/object LX0WX-13. If no packets are shown the sender has not sent any weather packets the latest 10 day(s).
| Time | Temp. | Humidity | Pressure | Rain* | Wind** | Luminosity | Snow |
|---|---|---|---|---|---|---|---|
| 1777875356 | 17.22° C | 57% | 1009.7 hPa | 0 mm | - | - | - |
| 1777875056 | 17.22° C | 57% | 1009.7 hPa | 0 mm | - | - | - |
| 1777874756 | 17.22° C | 58% | 1009.7 hPa | 0 mm | - | - | - |
| 1777874456 | 16.67° C | 59% | 1009.5 hPa | 0 mm | - | - | - |
| 1777874156 | 16.67° C | 60% | 1009.6 hPa | 0 mm | - | - | - |
| 1777873857 | 16.11° C | 62% | 1009.6 hPa | 0 mm | - | - | - |
| 1777873557 | 16.11° C | 64% | 1009.6 hPa | 0 mm | - | - | - |
| 1777873257 | 15.56° C | 65% | 1009.5 hPa | 0 mm | - | - | - |
| 1777872957 | 15.56° C | 68% | 1009.6 hPa | 0 mm | - | - | - |
| 1777872657 | 15° C | 73% | 1009.7 hPa | 0 mm | - | - | - |
| 1777872357 | 14.44° C | 77% | 1009.7 hPa | 0 mm | - | - | - |
| 1777872057 | 13.89° C | 82% | 1009.6 hPa | 0 mm | - | - | - |
| 1777871757 | 13.33° C | 88% | 1009.5 hPa | 0 mm | - | - | - |
| 1777871457 | 12.22° C | 91% | 1009.5 hPa | 0 mm | - | - | - |
| 1777871157 | 11.67° C | 92% | 1009.4 hPa | 0 mm | - | - | - |
| 1777870857 | 11.11° C | 93% | 1009.3 hPa | 0 mm | - | - | - |
| 1777870557 | 10° C | 94% | 1009.2 hPa | 0 mm | - | - | - |
| 1777870257 | 9.44° C | 93% | 1009.2 hPa | 0 mm | - | - | - |
| 1777869957 | 8.89° C | 96% | 1009.2 hPa | 0 mm | - | - | - |
| 1777869657 | 7.78° C | 96% | 1009.2 hPa | 0 mm | - | - | - |
| 1777869357 | 7.22° C | 96% | 1009.3 hPa | 0 mm | - | - | - |
| 1777869057 | 7.22° C | 93% | 1009.3 hPa | 0 mm | - | - | - |
| 1777868757 | 7.22° C | 92% | 1009.2 hPa | 0 mm | - | - | - |
| 1777868457 | 6.67° C | 92% | 1009.2 hPa | 0 mm | - | - | - |
| 1777868157 | 6.67° C | 92% | 1009.3 hPa | 0 mm | - | - | - |
* Rain latest hour (hover to see other rain measurements)
** Current wind speed in m/s (hover to see current wind gust speed)